Location: Brienzwiler
(46.7508°N, 8.1014°E)
Time: 16:39:59
(UTC+00:00)

CREW DRAGON DEMO-1 DEB - Pass Details

Date: 05 July 2020
Orbit: 368 x 372 km, 51.6° (Epoch: 10 August)

Event Time Altitude Azimuth Distance (km) Brightness Sun altitude
Exits shadow 23:53:24 23° 289° (WNW) 842 4.7 -20.4°
Maximum altitude 23:54:52 40° 346° (NNW) 561 4.1 -20.4°
Drops below altitude 10° 23:57:47 10° 58° (ENE) 1,370 6.1 -20.4°
Sets 23:59:54 0° 66° (ENE) 2,220 7.1 -20.3°
